Le nostre stazioni meteo in Italia

Pubblicità
Il mio iltempo24.it
Frosinone, Italia (16244): Temperatura & dewpoint: 13.04.2019 17:00:00 - 19.04.2019 17:00:00 (CEST)Frosinone, Italia (16244): velocità del vento: 13.04.2019 17:00:00 - 19.04.2019 17:00:00 (CEST)Frosinone, Italia (16244): direzione del vento: 13.04.2019 17:00:00 - 19.04.2019 17:00:00 (CEST)Frosinone, Italia (16244): reduced air pressure: 13.04.2019 17:00:00 - 19.04.2019 17:00:00 (CEST)Frosinone, Italia (16244): visibility: 13.04.2019 17:00:00 - 19.04.2019 17:00:00 (CEST)
Data & Tempo tt [°C] td [°C] ff [km/h] ff [kn] dd ppp [hPa] vv [km]
19.04.2019 17:00:00 21,2 6,0 8 4 SSO 1024,8 13
19.04.2019 16:00:00 22,0 6,0 5 3 OSO - 10
19.04.2019 15:00:00 22,0 6,0 13 7 SSE - 10
19.04.2019 14:00:00 21,2 5,6 9 5 SSE 1025,7 13
19.04.2019 13:00:00 21,0 5,0 9 5 S - 10
19.04.2019 12:00:00 20,0 5,0 9 5 S - 10
19.04.2019 11:00:00 18,0 5,2 5 3 SE 1026,4 13
19.04.2019 10:00:00 17,0 7,0 8 4 ESE - 10
19.04.2019 09:00:00 13,0 7,0 0 0 N - 10
19.04.2019 08:00:00 9,4 6,7 0 0 N 1026,7 12
19.04.2019 07:00:00 7,0 5,0 4 2 ONO - 10
19.04.2019 06:00:00 - - - - - - -
19.04.2019 05:00:00 - - - - - - -
19.04.2019 04:00:00 - - - - - - -
19.04.2019 03:00:00 - - - - - - -
19.04.2019 02:00:00 - - - - - - -
19.04.2019 01:00:00 - - - - - - -
19.04.2019 00:00:00 - - - - - - -
18.04.2019 23:00:00 - - - - - - -
18.04.2019 22:00:00 - - - - - - -
18.04.2019 21:00:00 - - - - - - -
18.04.2019 20:00:00 17,8 7,5 5 3 O 1021,6 13
18.04.2019 19:00:00 18,0 9,0 4 2 SO - 10
18.04.2019 18:00:00 19,0 8,0 11 6 S - 10
18.04.2019 17:00:00 20,0 7,1 21 11 S 1020,4 13
18.04.2019 16:00:00 22,0 6,0 9 5 SO - 10
18.04.2019 15:00:00 22,0 4,0 5 3 O - 10
18.04.2019 14:00:00 21,8 3,5 5 3 NE 1020,6 13
18.04.2019 13:00:00 20,0 10,0 11 6 SSE - 10
18.04.2019 12:00:00 18,0 9,0 8 4 SE - 10
18.04.2019 11:00:00 17,0 10,4 4 2 SSE 1021,7 8
18.04.2019 10:00:00 14,0 10,0 4 2 S - 6
18.04.2019 09:00:00 12,0 10,0 4 2 E - 4,0
18.04.2019 08:00:00 8,8 7,6 4 2 OSO 1021,9 0,6
18.04.2019 07:00:00 8,0 7,0 5 3 N - 1,1
18.04.2019 06:00:00 - - - - - - -
18.04.2019 05:00:00 - - - - - - -
18.04.2019 04:00:00 - - - - - - -
18.04.2019 03:00:00 - - - - - - -
18.04.2019 02:00:00 - - - - - - -
18.04.2019 01:00:00 - - - - - - -
18.04.2019 00:00:00 - - - - - - -
17.04.2019 23:00:00 - - - - - - -
17.04.2019 22:00:00 - - - - - - -
17.04.2019 21:00:00 - - - - - - -
17.04.2019 20:00:00 16,2 10,1 11 6 ENE 1019,0 11
17.04.2019 19:00:00 17,0 10,0 13 7 E - 10
17.04.2019 18:00:00 18,0 9,0 9 5 SSE - 10
17.04.2019 17:00:00 18,4 8,7 11 6 SSE 1017,9 11
17.04.2019 16:00:00 20,0 9,0 18 10 SSE - 10
17.04.2019 15:00:00 20,0 8,0 13 7 SE - 10
17.04.2019 14:00:00 20,2 6,9 9 5 S 1018,6 13
17.04.2019 13:00:00 19,0 5,0 4 2 NNO - 10
17.04.2019 12:00:00 18,0 6,0 4 2 NNO - 10
17.04.2019 11:00:00 15,4 7,2 4 2 O 1019,7 12
17.04.2019 10:00:00 12,0 7,0 4 2 S - 10
17.04.2019 09:00:00 9,0 7,0 4 2 SO - 8
17.04.2019 08:00:00 6,8 4,5 4 2 E 1020,0 8
17.04.2019 07:00:00 5,0 4,0 4 2 SO - 6
17.04.2019 06:00:00 - - - - - - -
17.04.2019 05:00:00 - - - - - - -
17.04.2019 04:00:00 - - - - - - -
17.04.2019 03:00:00 - - - - - - -
17.04.2019 02:00:00 - - - - - - -
17.04.2019 01:00:00 - - - - - - -
17.04.2019 00:00:00 - - - - - - -
16.04.2019 23:00:00 - - - - - - -
16.04.2019 22:00:00 - - - - - - -
16.04.2019 21:00:00 - - - - - - -
16.04.2019 20:00:00 15,4 7,2 18 10 ONO 1018,9 13
16.04.2019 19:00:00 16,0 8,0 18 10 NO - 10
16.04.2019 18:00:00 18,0 9,0 9 5 O - 10
16.04.2019 17:00:00 19,0 8,4 18 10 SSO 1017,8 13
16.04.2019 16:00:00 19,0 7,0 11 6 ESE - 10
16.04.2019 15:00:00 18,0 7,0 11 6 SSO - 10
16.04.2019 14:00:00 19,4 8,4 18 10 SSO 1018,7 13
16.04.2019 13:00:00 19,0 8,0 18 10 S - 10
16.04.2019 12:00:00 17,0 7,0 4 2 S - 10
16.04.2019 11:00:00 15,0 7,1 5 3 E 1019,4 13
16.04.2019 10:00:00 12,0 7,0 5 3 S - 10
16.04.2019 09:00:00 10,0 6,0 0 0 N - 10
16.04.2019 08:00:00 7,0 6,0 4 2 N 1019,2 13
16.04.2019 07:00:00 7,0 6,0 4 2 ONO - 10
16.04.2019 06:00:00 - - - - - - -
16.04.2019 05:00:00 - - - - - - -
16.04.2019 04:00:00 - - - - - - -
16.04.2019 03:00:00 - - - - - - -
16.04.2019 02:00:00 - - - - - - -
16.04.2019 01:00:00 - - - - - - -
16.04.2019 00:00:00 - - - - - - -
15.04.2019 23:00:00 - - - - - - -
15.04.2019 22:00:00 - - - - - - -
15.04.2019 21:00:00 - - - - - - -
15.04.2019 20:00:00 16,0 8,7 5 3 E 1015,2 13
15.04.2019 19:00:00 17,0 7,0 11 6 SSE - 10
15.04.2019 18:00:00 19,0 4,0 13 7 ESE - 10
15.04.2019 17:00:00 18,8 4,2 13 7 E 1013,7 13
15.04.2019 16:00:00 19,0 5,0 13 7 ENE - 10
15.04.2019 15:00:00 19,0 4,0 18 10 NNE - 10
15.04.2019 14:00:00 19,4 4,7 21 11 NNE 1013,1 13
15.04.2019 13:00:00 18,0 7,0 5 3 SSO - 10
15.04.2019 12:00:00 16,0 6,0 8 4 O - 10
15.04.2019 11:00:00 14,2 6,5 9 5 O 1013,1 13
15.04.2019 10:00:00 11,0 6,0 5 3 O - 10
15.04.2019 09:00:00 9,0 5,0 8 4 O - 10
15.04.2019 08:00:00 5,0 4,3 5 3 ONO 1011,2 13
15.04.2019 07:00:00 4,0 3,0 5 3 O - 7
15.04.2019 06:00:00 - - - - - - -
15.04.2019 05:00:00 - - - - - - -
15.04.2019 04:00:00 - - - - - - -
15.04.2019 03:00:00 - - - - - - -
15.04.2019 02:00:00 - - - - - - -
15.04.2019 01:00:00 - - - - - - -
15.04.2019 00:00:00 - - - - - - -
14.04.2019 23:00:00 - - - - - - -
14.04.2019 22:00:00 - - - - - - -
14.04.2019 21:00:00 - - - - - - -
14.04.2019 20:00:00 - - - - - - -
14.04.2019 19:00:00 - - - - - - -
14.04.2019 18:00:00 - - - - - - -
14.04.2019 17:00:00 - - - - - - -
14.04.2019 16:00:00 - - - - - - -
14.04.2019 15:00:00 - - - - - - -
14.04.2019 14:00:00 - - - - - - -
14.04.2019 13:00:00 - - - - - - -
14.04.2019 12:00:00 - - - - - - -
14.04.2019 11:00:00 - - - - - - -
14.04.2019 10:00:00 - - - - - - -
14.04.2019 09:00:00 - - - - - - -
14.04.2019 08:00:00 - - - - - - -
14.04.2019 07:00:00 - - - - - - -
14.04.2019 06:00:00 - - - - - - -
14.04.2019 05:00:00 - - - - - - -
14.04.2019 04:00:00 - - - - - - -
14.04.2019 03:00:00 - - - - - - -
14.04.2019 02:00:00 - - - - - - -
14.04.2019 01:00:00 - - - - - - -
14.04.2019 00:00:00 - - - - - - -
13.04.2019 23:00:00 - - - - - - -
13.04.2019 22:00:00 - - - - - - -
13.04.2019 21:00:00 - - - - - - -
13.04.2019 20:00:00 - - - - - - -
13.04.2019 19:00:00 - - - - - - -
13.04.2019 18:00:00 - - - - - - -
13.04.2019 17:00:00 - - - - - - -

tt = Temperatura
td = dewpoint
ff = velocità del vento
dd = direzione del vento
ppp = reduced air pressure
vv = visibility

Stazioni seguenti

WeatherPro
AMSI
MeteoEarth